#timestamp,LO_Frequency,Hit,StdDev 
1458590415.9,286047002.8,N
1458590435.7,286046999.7,N
1458590455.5,286047002.0,N
1458590475.3,286047005.3,N
1458590495.2,286047003.5,N
1458590515.0,286047004.6,N
1458590515.9,286047004.6,N
1458590535.7,286047005.2,N
1458590555.6,286047008.3,Y
1458590575.4,286047004.9,P
1458590595.2,286047008.6,P
1458590615.1,286047008.2,P
1458590616.0,286047008.2,Y
1458590635.8,286047002.3,P
1458590655.6,286047004.8,N
1458590675.5,286047007.0,P
1458590695.3,286047006.5,Y
1458590715.1,286047002.7,P
1458590735.9,286047003.8,P
1458590755.7,286047005.0,P
1458590775.6,286047004.9,Y
1458590795.4,286047003.1,P
1458590815.2,286047001.8,P
1458590835.0,286047004.3,P
1458590836.0,286047004.3,Y
1458590855.8,286046999.1,P
1458590875.6,286047000.5,N
1458590895.4,286047000.6,N
1458590915.3,286046995.3,Y
1458590935.1,286046993.6,P
1458590955.8,286046996.3,N
1458590975.7,286046991.9,N
1458590995.5,286046993.8,N
1458591015.3,286046991.1,N
1458591035.2,286046985.4,Y
1458591055.0,286046992.1,P
1458591055.9,286046992.1,P
1458591075.7,286046992.3,P
1458591095.6,286046990.9,Y
1458591115.4,286046997.9,P
1458591135.3,286047000.7,N
1458591155.1,286047001.1,N
1458591156.0,286047001.1,N
1458591175.8,286046997.9,N
1458591195.6,286046995.8,N
1458591215.5,286046996.2,N
1458591235.3,286046991.7,N
1458591255.1,286046994.5,N
1458591275.9,286046993.7,N
1458591295.7,286046996.4,N
1458591315.5,286046993.0,N
1458591335.4,286046989.1,Y
1458591355.2,286046995.9,P
1458591375.0,286046995.5,P
1458591375.9,286046995.5,P
1458591395.8,286046997.9,Y
1458591415.6,286047000.2,P
1458591435.4,286047000.1,N
1458591455.3,286047003.9,N
1458591475.1,286047002.1,N
1458591495.8,286046996.7,N
1458591515.7,286046999.3,N
1458591535.5,286046997.6,N
1458591555.3,286046995.2,N
1458591575.2,286046995.7,N
1458591595.9,286046998.9,N
1458591615.7,286046997.6,N
1458591635.5,286046995.8,N
1458591655.4,286046993.1,N
1458591675.2,286046993.0,N
1458591695.0,286046993.7,N
1458591695.9,286046993.7,N
1458591715.8,286046999.2,N
1458591735.6,286047002.5,N
1458591755.4,286047004.0,N
1458591775.3,286047001.8,N
1458591795.1,286047003.8,N
1458591815.8,286046998.2,N
1458591835.7,286046996.8,N
1458591855.5,286046997.9,N
1458591875.3,286046991.7,N
1458591895.2,286046995.7,N
1458591915.9,286046995.7,N
1458591935.7,286046996.4,N
1458591955.6,286046995.2,N
1458591975.4,286046998.1,N
1458591995.2,286046997.5,N
1458592015.0,286046993.5,N
1458592015.9,286046993.5,N
1458592035.8,286046996.3,N
1458592055.6,286046992.3,N
1458592075.4,286046994.8,N
1458592095.3,286046990.1,Y
1458592115.1,286046995.5,P
1458592135.8,286046995.6,P
1458592155.7,286046994.4,P
1458592175.5,286046996.1,Y
1458592195.3,286047004.2,P
1458592215.2,286047000.9,N
1458592235.0,286047000.5,N
1458592235.9,286047000.5,N
1458592255.7,286046996.6,N
1458592275.6,286046995.2,N
1458592295.4,286046996.1,N
1458592315.2,286046998.5,N
1458592335.1,286047002.1,N
1458592336.0,286047002.1,N
1458592355.8,286046998.8,N
1458592375.6,286046998.8,N
1458592395.5,286046998.7,N
1458592415.3,286047000.9,N
1458592435.1,286046999.3,N
1458592455.9,286046996.9,N
1458592475.7,286046996.7,N
1458592495.5,286046998.8,N
1458592515.3,286046996.5,N
1458592535.2,286046995.6,N
1458592555.0,286046997.9,N
1458592555.9,286046997.9,N
1458592575.7,286046994.7,N
1458592595.6,286046997.6,N
1458592615.4,286046995.7,N
1458592635.2,286046998.0,N
1458592655.1,286046995.0,N
1458592656.0,286046995.0,N
1458592675.8,286046995.2,N
1458592695.6,286046996.0,N
1458592715.5,286046994.1,N
1458592735.3,286046994.9,N
1458592755.1,286046995.0,N
1458592775.9,286046997.9,N
1458592795.7,286046994.9,N
1458592815.5,286046997.1,N
1458592835.3,286046994.9,N
1458592855.2,286046998.0,N
1458592875.0,286046996.2,N
1458592875.9,286046996.2,N
1458592895.8,286046994.1,Y
1458592915.6,286046997.9,P
1458592935.4,286046995.9,P
1458592955.2,286046997.9,N
1458592975.1,286046994.0,Y
1458592976.0,286046994.0,P
1458592995.8,286046998.7,N
1458593015.6,286046999.2,N
1458593035.5,286046997.3,N
1458593055.3,286046997.7,N
1458593075.1,286046995.4,N
1458593095.9,286046998.7,N
1458593115.7,286046998.2,N
1458593135.5,286046999.8,N
1458593155.4,286046998.4,N
1458593175.2,286046997.5,N
1458593195.0,286046999.3,N
1458593195.9,286046999.3,N
1458593215.8,286046998.6,N
1458593235.6,286046997.8,N
1458593255.4,286046997.9,N
1458593275.3,286046993.9,Y
1458593295.1,286046998.0,P
1458593296.0,286046998.0,P
1458593315.8,286046993.4,P
1458593335.7,286046995.1,N
1458593355.5,286046995.9,N
1458593375.3,286046996.2,N
1458593395.1,286046996.0,N
1458593415.9,286046996.4,N
1458593435.7,286046996.9,N
1458593455.5,286046997.4,N
1458593475.4,286046996.8,N
1458593495.2,286047003.8,N
1458593515.0,286046999.8,N
1458593515.9,286046999.8,N
1458593535.8,286047004.3,N
1458593555.6,286047007.4,N
1458593575.4,286047001.6,N
1458593595.3,286047000.4,N
1458593615.1,286047004.4,N
1458593616.0,286047004.4,N
1458593635.8,286047005.7,N
1458593655.7,286047005.9,N
1458593675.5,286047002.9,N
1458593695.3,286047001.6,N
1458593715.2,286047001.2,N
1458593735.9,286046999.9,N
1458593755.7,286047005.2,N
1458593775.5,286047008.9,N
1458593795.4,286047009.0,N
1458593815.2,286047009.2,N
1458593835.0,286047005.4,N
1458593835.9,286047005.4,N
1458593855.8,286047007.2,N
1458593875.6,286047006.3,N
1458593895.4,286047006.7,N
1458593915.3,286047006.7,N
1458593935.1,286047007.4,N
1458593936.0,286047007.4,N
1458593955.8,286047008.6,N
1458593975.7,286047006.3,N
1458593995.5,286047007.4,N
